This is the latest recevied weather packets stored in our database for station/object N4WFF. If no packets are shown the sender has not sent any weather packets the latest 10 day(s).
| Time | Temp. | Humidity | Pressure | Rain* | Wind** | Luminosity | Snow |
|---|---|---|---|---|---|---|---|
| 1777599055 | 19.44° C | 88% | 1012.4 hPa | 0 mm | - | 0 W/m² | - |
| 1777598756 | 19.44° C | 87% | 1012.5 hPa | 0 mm | - | 0 W/m² | - |
| 1777598455 | 19.44° C | 87% | 1012.4 hPa | 0 mm | - | 0 W/m² | - |
| 1777598155 | 20° C | 87% | 1012.4 hPa | 0 mm | - | 0 W/m² | - |
| 1777597855 | 20° C | 87% | 1012.4 hPa | 0 mm | - | 0 W/m² | - |
| 1777597556 | 20° C | 87% | 1012.4 hPa | 0 mm | - | 0 W/m² | - |
| 1777597255 | 20° C | 87% | 1012.3 hPa | 0 mm | - | 0 W/m² | - |
| 1777596955 | 20° C | 87% | 1012.3 hPa | 0 mm | - | 0 W/m² | - |
| 1777596655 | 20° C | 87% | 1012.2 hPa | 0 mm | - | 0 W/m² | - |
| 1777596355 | 20° C | 87% | 1012.2 hPa | 0 mm | - | 0 W/m² | - |
| 1777596055 | 20° C | 86% | 1012 hPa | 0 mm | - | 0 W/m² | - |
| 1777595756 | 20.56° C | 86% | 1011.9 hPa | 0 mm | - | 1 W/m² | - |
| 1777595457 | 20.56° C | 86% | 1011.8 hPa | 0 mm | - | 1 W/m² | - |
| 1777595156 | 20.56° C | 86% | 1011.7 hPa | 0 mm | - | 2 W/m² | - |
| 1777594856 | 20.56° C | 86% | 1011.7 hPa | 0 mm | - | 3 W/m² | - |
| 1777594556 | 21.11° C | 86% | 1011.7 hPa | 0 mm | - | 4 W/m² | - |
| 1777594256 | 21.11° C | 85% | 1012 hPa | 0 mm | - | 4 W/m² | - |
| 1777593956 | 21.11° C | 85% | 1012 hPa | 0 mm | - | 6 W/m² | - |
| 1777593659 | 21.11° C | 84% | 1011.8 hPa | 0 mm | - | 11 W/m² | - |
| 1777593355 | 21.11° C | 84% | 1011.5 hPa | 0 mm | - | 32 W/m² | - |
| 1777593055 | 21.67° C | 84% | 1011.3 hPa | 0 mm | - | 28 W/m² | - |
| 1777592757 | 21.67° C | 84% | 1011.4 hPa | 0 mm | - | 40 W/m² | - |
| 1777592458 | 21.67° C | 83% | 1011.3 hPa | 0 mm | - | 32 W/m² | - |
| 1777592155 | 22.22° C | 83% | 1011.4 hPa | 0 mm | - | 37 W/m² | - |
| 1777591856 | 22.22° C | 82% | 1011.3 hPa | 0 mm | - | 49 W/m² | - |
* Rain latest hour (hover to see other rain measurements)
** Current wind speed in m/s (hover to see current wind gust speed)